Lexington, KY

7:26 AM EST on November 24, 2017 (GMT -0500)
Blue Grass

Weather History for KLEX - September, 2011

Change the Weather History Date:

Tuesday, September 20, 2011

  Actual Average Record
Temperature  
Mean Temperature 69 °F 66 °F  
Max Temperature 74 °F 77 °F 96 °F (1940)
Min Temperature 63 °F 56 °F 40 °F (1896)
Degree Days  
Heating Degree Days 0 2  
Month to date heating degree days 43 16  
Since 1 July heating degree days 43 18  
Cooling Degree Days 4 4  
Month to date cooling degree days 100 118  
Year to date cooling degree days 1287 1135  
Growing Degree Days 18 (Base 50)    
Moisture  
Dew Point 63 °F    
Average Humidity 84    
Maximum Humidity 100    
Minimum Humidity 68    
Precipitation  
Precipitation T in 0.09 in 3.08 in (1954)
Month to date precipitation 4.55 1.93  
Year to date precipitation 48.41 33.60  
Snow  
Snow 0.00 in 0.00 in - ()
Month to date snowfall 0.0 0.0  
Since 1 July snowfall 0.0 0.0  
Since 1 September snowfall 0.0 0.0  
Snow Depth 0.00 in    
Sea Level Pressure  
Sea Level Pressure 30.08 in    
Wind  
Wind Speed 4 mph (South)    
Max Wind Speed 10 mph    
Max Gust Speed 13 mph    
Visibility 8 miles    
Events Rain    
T = Trace of Precipitation, MM = Missing Value Source: NWS Daily Summary

Daily Weather History Graph

Daily Weather History Graph

Search for Another Location

Airport or City:

Trip Planner

Search our weather history database for the weather conditions in past years. The results will help you decide how hot, cold, wet, or windy it might be!

Date:

Astronomy

Sep. 20, 2011 Rise Set
Actual Time 7:24 AM EDT 7:38 PM EDT
Civil Twilight 6:57 AM EDT 8:05 PM EDT
Nautical Twilight 6:27 AM EDT 8:36 PM EDT
Astronomical Twilight 5:55 AM EDT 9:07 PM EDT
Moon No Moon Rise 2:56 PM EDT (9/20)
Length of Visible Light 13h 07m
Length of Day
12h 14m
Waning Gibbous, 49% of the Moon is Illuminated
Sep 20
Waning Gibbous
Sep 27
New
Oct 3
First Quarter
Oct 11
Full
Oct 19
Last Quarter

Hourly Weather History & Observations

Time (EDT) Temp. Dew Point Humidity Pressure Visibility Wind Dir Wind Speed Gust Speed Precip Events Conditions
12:54 AM 63.0 °F 62.1 °F 97% 30.05 in 4.0 mi SW 6.9 mph - N/A   Overcast
1:07 AM 62.6 °F 62.6 °F 100% 30.06 in 5.0 mi SSW 6.9 mph - N/A   Overcast
1:54 AM 63.0 °F 62.1 °F 97% 30.04 in 6.0 mi SW 5.8 mph - N/A   Overcast
2:54 AM 63.0 °F 62.1 °F 97% 30.04 in 6.0 mi SW 8.1 mph - N/A   Overcast
3:54 AM 63.0 °F 62.1 °F 97% 30.04 in 6.0 mi SSW 6.9 mph - N/A   Overcast
4:54 AM 63.0 °F 63.0 °F 100% 30.05 in 4.0 mi SW 5.8 mph - N/A   Overcast
5:54 AM - - N/A% 30.07 in 4.0 mi SSW 6.9 mph - N/A   Haze
6:54 AM 63.0 °F 62.1 °F 97% 30.08 in 5.0 mi SW 4.6 mph - N/A   Overcast
7:44 AM 62.6 °F 62.6 °F 100% 30.10 in 2.0 mi SSW 5.8 mph - N/A   Overcast
7:54 AM 63.0 °F 62.1 °F 97% 30.09 in 1.5 mi SSW 4.6 mph - N/A   Overcast
8:07 AM 62.6 °F 62.6 °F 100% 30.11 in 2.5 mi Calm Calm - N/A   Overcast
8:14 AM 62.6 °F 62.6 °F 100% 30.11 in 4.0 mi South 3.5 mph - N/A   Overcast
8:54 AM 64.4 °F 62.6 °F 94% 30.11 in 7.0 mi SSW 4.6 mph - N/A   Overcast
9:54 AM 64.9 °F 63.0 °F 93% 30.11 in 9.0 mi SW 3.5 mph - N/A   Overcast
10:54 AM 66.9 °F 63.0 °F 87% 30.11 in 10.0 mi Calm Calm - N/A   Overcast
11:05 AM 69.8 °F 64.4 °F 83% 30.12 in 10.0 mi Calm Calm - N/A   Overcast
11:25 AM 69.8 °F 62.6 °F 78% 30.12 in 10.0 mi South 3.5 mph - 0.00 in Rain Light Rain
11:54 AM 70.0 °F 63.0 °F 78% 30.10 in 10.0 mi Calm Calm - 0.00 in   Overcast
12:31 PM 69.8 °F 62.6 °F 78% 30.11 in 10.0 mi Calm Calm - N/A   Overcast
12:54 PM 70.0 °F 64.0 °F 81% 30.09 in 10.0 mi South 6.9 mph - N/A   Overcast
1:29 PM 69.8 °F 64.4 °F 83% 30.10 in 10.0 mi South 5.8 mph - N/A   Overcast
1:54 PM 71.1 °F 64.0 °F 78% 30.08 in 10.0 mi SSW 5.8 mph - N/A   Overcast
2:54 PM 71.1 °F 63.0 °F 75% 30.07 in 10.0 mi South 5.8 mph - N/A   Overcast
3:54 PM 71.1 °F 64.0 °F 78% 30.05 in 10.0 mi South 5.8 mph - N/A   Overcast
4:54 PM 73.0 °F 63.0 °F 71% 30.04 in 10.0 mi South 9.2 mph - 0.00 in   Overcast
5:54 PM 73.4 °F 64.4 °F 73% 30.05 in 10.0 mi SE 5.8 mph - N/A   Scattered Clouds
6:54 PM 72.0 °F 64.0 °F 76% 30.04 in 10.0 mi Calm Calm - N/A   Overcast
7:54 PM 71.1 °F 64.0 °F 78% 30.05 in 10.0 mi SE 3.5 mph - N/A   Mostly Cloudy
8:54 PM 69.8 °F 64.4 °F 83% 30.07 in 10.0 mi Calm Calm - N/A   Overcast
9:54 PM 70.0 °F 64.9 °F 84% 30.06 in 10.0 mi ESE 3.5 mph - N/A   Overcast
10:54 PM 70.0 °F 64.9 °F 84% 30.05 in 10.0 mi ESE 3.5 mph - N/A   Overcast
11:54 PM 69.8 °F 64.4 °F 83% 30.07 in 10.0 mi SSE 4.6 mph - N/A   Overcast